DIESL EDFZ-EDKB

Flight info

Callsign DIESL
Flight time 0h 30m
Altitude 2500
Route RHEIN RIVER
Aircraft DA42/L-SBDFGRY/S

Departure

Time 2026-04-25 17:12
Airport Mainz-Finthen Airfield (EDFZ)

Arrival

Time 2026-04-25 17:42
Airport Bonn-Hangelar Airfield (EDKB)
Time Latitude Longitude Altitude Speed Heading
2026-04-25 17:03 49.97196 8.15188 753 ft 0 kts 252°
2026-04-25 17:08 49.97192 8.15181 753 ft 5 kts 201°
2026-04-25 17:08 49.97152 8.15159 754 ft 7 kts 150°
2026-04-25 17:08 49.97107 8.15203 755 ft 8 kts 146°
2026-04-25 17:08 49.97067 8.15279 755 ft 11 kts 101°
2026-04-25 17:09 49.97068 8.15325 756 ft 0 kts 82°
2026-04-25 17:10 49.97073 8.15370 754 ft 12 kts 81°
2026-04-25 17:10 49.97025 8.15417 754 ft 10 kts 248°
2026-04-25 17:11 49.97020 8.15381 757 ft 0 kts 252°
2026-04-25 17:11 49.96988 8.15206 757 ft 48 kts 254°
2026-04-25 17:11 49.96859 8.14451 790 ft 87 kts 258°
2026-04-25 17:11 49.96714 8.13544 1090 ft 89 kts 263°
2026-04-25 17:12 49.96571 8.12611 1467 ft 88 kts 264°
2026-04-25 17:12 49.96422 8.11651 1674 ft 101 kts 261°
2026-04-25 17:12 49.96257 8.10511 1804 ft 115 kts 282°
2026-04-25 17:12 49.96719 8.09522 1880 ft 126 kts 328°
2026-04-25 17:13 49.97559 8.08791 1812 ft 144 kts 331°
2026-04-25 17:13 49.97846 8.08541 1815 ft 147 kts 331°
2026-04-25 17:13 49.99253 8.06920 1806 ft 158 kts 302°
2026-04-25 17:13 49.99556 8.05259 1808 ft 164 kts 279°
2026-04-25 17:14 49.99435 8.03481 1813 ft 168 kts 261°
2026-04-25 17:14 49.99132 8.01727 1823 ft 169 kts 258°
2026-04-25 17:14 49.98704 7.99991 1815 ft 171 kts 250°
2026-04-25 17:14 49.98193 7.98331 1814 ft 172 kts 248°
2026-04-25 17:15 49.97678 7.96666 1806 ft 169 kts 252°
2026-04-25 17:15 49.97352 7.94938 1821 ft 166 kts 261°
2026-04-25 17:15 49.97119 7.93194 1814 ft 164 kts 264°
2026-04-25 17:15 49.96931 7.91448 1823 ft 165 kts 265°
2026-04-25 17:16 49.96802 7.89677 1821 ft 165 kts 271°
2026-04-25 17:16 49.96826 7.87912 1840 ft 162 kts 289°
2026-04-25 17:16 49.97269 7.87006 1922 ft 155 kts 329°
2026-04-25 17:16 49.98313 7.86531 1819 ft 162 kts 348°
2026-04-25 17:17 49.99395 7.86119 1821 ft 159 kts 345°
2026-04-25 17:17 50.00439 7.85554 1822 ft 156 kts 336°
2026-04-25 17:17 50.01289 7.84483 1829 ft 159 kts 315°
2026-04-25 17:17 50.02040 7.83176 1819 ft 163 kts 314°
2026-04-25 17:18 50.02781 7.81867 1819 ft 160 kts 313°
2026-04-25 17:18 50.03511 7.80581 1822 ft 158 kts 313°
2026-04-25 17:18 50.04244 7.79304 1819 ft 158 kts 316°
2026-04-25 17:18 50.05089 7.78206 1823 ft 155 kts 324°
2026-04-25 17:19 50.06010 7.77355 1821 ft 153 kts 335°
2026-04-25 17:19 50.06981 7.76662 1821 ft 153 kts 335°
2026-04-25 17:19 50.07928 7.75921 1828 ft 153 kts 332°
2026-04-25 17:19 50.08862 7.75102 1830 ft 155 kts 329°
2026-04-25 17:20 50.09760 7.74158 1826 ft 157 kts 325°
2026-04-25 17:20 50.10710 7.73336 1814 ft 158 kts 343°
2026-04-25 17:20 50.11793 7.73161 1838 ft 157 kts
2026-04-25 17:20 50.12885 7.73311 1821 ft 156 kts 353°
2026-04-25 17:21 50.13931 7.72954 1830 ft 155 kts 337°
2026-04-25 17:21 50.14860 7.72058 1826 ft 156 kts 324°
2026-04-25 17:21 50.15726 7.71043 1822 ft 155 kts 323°
2026-04-25 17:21 50.16546 7.70024 1825 ft 152 kts 316°
2026-04-25 17:22 50.17040 7.68566 1844 ft 151 kts 291°
2026-04-25 17:22 50.17233 7.67515 1839 ft 153 kts 290°
2026-04-25 17:22 50.18058 7.65803 1842 ft 149 kts 322°
2026-04-25 17:22 50.18891 7.64824 1839 ft 152 kts 324°
2026-04-25 17:23 50.19761 7.63828 1838 ft 154 kts 324°
2026-04-25 17:23 50.20633 7.62820 1836 ft 157 kts 324°
2026-04-25 17:23 50.21631 7.62165 1822 ft 159 kts 354°
2026-04-25 17:23 50.22695 7.62591 1842 ft 161 kts 24°
2026-04-25 17:24 50.23629 7.63569 1839 ft 164 kts 32°
2026-04-25 17:24 50.24585 7.64538 1836 ft 163 kts 24°
2026-04-25 17:24 50.25659 7.65003 1819 ft 160 kts 355°
2026-04-25 17:24 50.26699 7.64464 1753 ft 162 kts 328°
2026-04-25 17:25 50.27597 7.63375 1638 ft 165 kts 319°
2026-04-25 17:25 50.28444 7.62211 1639 ft 160 kts 318°
2026-04-25 17:25 50.29275 7.61061 1582 ft 160 kts 318°
2026-04-25 17:25 50.30168 7.60063 1577 ft 159 kts 336°
2026-04-25 17:26 50.31257 7.59785 1595 ft 162 kts 359°
2026-04-25 17:26 50.32399 7.59953 1587 ft 165 kts
2026-04-25 17:26 50.33521 7.60333 1593 ft 166 kts 12°
2026-04-25 17:26 50.34643 7.60804 1585 ft 167 kts 12°
2026-04-25 17:27 50.35764 7.61259 1587 ft 167 kts 11°
2026-04-25 17:27 50.36892 7.61614 1585 ft 163 kts
2026-04-25 17:27 50.38012 7.61476 1580 ft 161 kts 343°
2026-04-25 17:27 50.38367 7.61282 1575 ft 160 kts 335°
2026-04-25 17:28 50.39699 7.59400 1589 ft 155 kts 309°
2026-04-25 17:28 50.40361 7.58058 1591 ft 156 kts 308°
2026-04-25 17:28 50.41023 7.56690 1590 ft 155 kts 308°
2026-04-25 17:28 50.41608 7.55279 1588 ft 154 kts 298°
2026-04-25 17:29 50.42040 7.53874 1591 ft 155 kts 296°
2026-04-25 17:29 50.42493 7.52340 1590 ft 155 kts 296°
2026-04-25 17:29 50.42950 7.50797 1594 ft 159 kts 296°
2026-04-25 17:29 50.43325 7.49162 1580 ft 160 kts 285°
2026-04-25 17:30 50.43557 7.47449 1594 ft 162 kts 283°
2026-04-25 17:30 50.43772 7.45706 1584 ft 163 kts 283°
2026-04-25 17:30 50.43982 7.43968 1585 ft 161 kts 283°
2026-04-25 17:30 50.44191 7.42243 1586 ft 162 kts 283°
2026-04-25 17:31 50.44428 7.40517 1569 ft 161 kts 288°
2026-04-25 17:31 50.44870 7.38922 1521 ft 159 kts 302°
2026-04-25 17:31 50.45538 7.37542 1497 ft 158 kts 314°
2026-04-25 17:31 50.46314 7.36328 1499 ft 157 kts 317°
2026-04-25 17:32 50.47146 7.35230 1496 ft 156 kts 322°
2026-04-25 17:32 50.48014 7.34195 1497 ft 157 kts 324°
2026-04-25 17:32 50.48903 7.33214 1498 ft 156 kts 326°
2026-04-25 17:32 50.49829 7.32270 1493 ft 158 kts 327°
2026-04-25 17:33 50.50761 7.31341 1492 ft 160 kts 327°
2026-04-25 17:33 50.51709 7.30438 1493 ft 159 kts 331°
2026-04-25 17:33 50.52701 7.29649 1495 ft 160 kts 333°
2026-04-25 17:33 50.53702 7.28882 1498 ft 160 kts 335°
2026-04-25 17:34 50.54670 7.28270 1496 ft 160 kts 338°
2026-04-25 17:34 50.55704 7.27644 1491 ft 159 kts 336°
2026-04-25 17:34 50.56548 7.26557 1500 ft 158 kts 313°
2026-04-25 17:34 50.57259 7.25244 1497 ft 159 kts 314°
2026-04-25 17:35 50.58141 7.24228 1488 ft 157 kts 330°
2026-04-25 17:35 50.59122 7.23463 1496 ft 158 kts 336°
2026-04-25 17:35 50.60153 7.22836 1497 ft 158 kts 340°
2026-04-25 17:35 50.61197 7.22306 1507 ft 158 kts 342°
2026-04-25 17:36 50.62278 7.21839 1510 ft 160 kts 345°
2026-04-25 17:36 50.63378 7.21475 1482 ft 162 kts 347°
2026-04-25 17:36 50.64493 7.21142 1411 ft 164 kts 346°
2026-04-25 17:36 50.65622 7.20682 1297 ft 165 kts 338°
2026-04-25 17:37 50.66645 7.19919 1299 ft 161 kts 331°
2026-04-25 17:37 50.67625 7.19076 1299 ft 158 kts 330°
2026-04-25 17:37 50.68556 7.18261 1308 ft 146 kts 330°
2026-04-25 17:37 50.69430 7.17503 1295 ft 141 kts 330°
2026-04-25 17:38 50.70006 7.16997 1239 ft 140 kts 329°
2026-04-25 17:38 50.70533 7.16438 1187 ft 138 kts 323°
2026-04-25 17:38 50.71423 7.15035 1112 ft 131 kts 309°
2026-04-25 17:38 50.71956 7.13904 1108 ft 128 kts 307°
2026-04-25 17:39 50.72615 7.12980 1101 ft 127 kts 339°
2026-04-25 17:39 50.73490 7.13053 1105 ft 130 kts 14°
2026-04-25 17:39 50.74320 7.13564 1110 ft 126 kts 18°
2026-04-25 17:39 50.75092 7.14234 1093 ft 128 kts 44°
2026-04-25 17:40 50.75388 7.15489 1097 ft 122 kts 89°
2026-04-25 17:40 50.75138 7.16720 1101 ft 115 kts 112°
2026-04-25 17:40 50.74818 7.17840 1084 ft 109 kts 105°
2026-04-25 17:40 50.74788 7.18927 1049 ft 94 kts 69°
2026-04-25 17:41 50.75212 7.19624 939 ft 87 kts 16°
2026-04-25 17:41 50.75770 7.19546 776 ft 81 kts 328°
2026-04-25 17:41 50.76162 7.18902 581 ft 80 kts 309°
2026-04-25 17:41 50.76469 7.18166 422 ft 80 kts 298°
2026-04-25 17:42 50.76673 7.17331 294 ft 81 kts 289°
2026-04-25 17:42 50.76850 7.16507 208 ft 72 kts 290°
2026-04-25 17:42 50.76966 7.15981 212 ft 27 kts 287°
2026-04-25 17:42 50.76999 7.15780 205 ft 13 kts 251°
2026-04-25 17:43 50.76943 7.15723 205 ft 5 kts 172°
2026-04-25 17:43 50.76914 7.15774 205 ft 8 kts 105°
2026-04-25 17:43 50.76892 7.15881 206 ft 12 kts 109°
2026-04-25 17:43 50.76861 7.16026 205 ft 15 kts 109°
2026-04-25 17:44 50.76819 7.16165 214 ft 11 kts 150°
2026-04-25 17:44 50.76763 7.16129 204 ft 5 kts 199°
2026-04-25 17:44 50.76756 7.16172 203 ft 7 kts 53°
2026-04-25 17:44 50.76775 7.16193 205 ft 0 kts 10°